Temperature
18 18 18 18 18 18 18 18 18 18 17 17 17 17 18 18 18 18 17 18 17 17 17 17 17 17 16 16 16 16 16 16 16 16 16 16 16 16 16 16 16 16 16
18 18 18 18 18 18 18 18 18 18 17 17 17 17 17 17 17 17 17 17 17 17 17 17 17 17 16 16 16 16 16 16 16 16 16 16 16 16 16 16 16 16 16
18 18 18 18 18 18 18 18 18 18 18 17 17 17 17 17 17 17 17 17 17 17 17 17 17 16 16 16 16 16 16 16 16 16 16 16 16 16 16 16 16 16 15
18 18 18 18 18 18 18 18 18 17 18 18 17 17 17 17 17 17 17 17 17 17 16 17 17 16 16 16 16 16 16 16 16 16 16 16 16 16 16 15 15 15 15
18 18 18 18 18 18 18 18 18 18 18 17 17 17 17 17 17 17 17 17 16 16 16 16 17 16 16 16 16 16 16 16 16 16 16 16 16 16 15 15 15 15 15
18 18 18 18 18 18 18 18 18 18 17 17 18 17 17 17 17 17 17 16 16 16 16 16 16 16 16 16 16 16 16 16 16 16 16 15 15 15 15 15 15 15 15
18 18 18 18 18 18 18 18 18 18 17 17 17 17 17 17 17 17 16 16 16 16 16 16 16 16 16 16 16 16 16 16 16 16 15 15 15 15 15 15 15 15 15
18 18 18 18 18 18 18 18 18 18 17 17 17 18 18 18 17 17 16 16 16 16 16 16 16 16 16 15 16 16 16 16 15 15 15 15 15 15 15 15 15 14 14
18 18 18 18 18 18 18 18 17 17 17 17 17 18 18 19 18 17 17 16 16 16 16 15 15 15 15 15 15 15 15 15 15 15 15 15 15 15 14 14 14 14 14
18 18 18 18 18 18 18 18 18 17 17 18 17 17 17 17 18 17 17 16 16 16 15 15 15 15 15 15 15 15 15 15 15 15 15 15 15 14 14 14 14 14 14
18 18 18 18 18 18 18 18 18 17 17 17 17 17 17 17 17 18 17 16 16 16 15 15 15 15 15 14 14 15 15 15 15 15 14 14 14 14 14 14 14 14 14
18 18 18 18 18 18 18 18 17 17 17 17 17 17 17 17 17 17 17 17 16 16 15 15 15 14 14 14 14 15 15 15 15 14 14 14 14 14 14 14 14 14 14
18 18 18 18 18 18 18 18 18 17 17 17 17 17 17 17 17 17 17 17 16 16 15 15 15 14 14 14 14 15 14 14 14 14 14 14 14 14 14 14 13 13 13
18 18 18 18 18 18 17 18 17 17 17 17 17 17 17 17 17 17 17 17 17 17 16 15 15 14 14 14 14 14 14 14 14 14 14 14 14 14 14 13 13 13 13
18 18 18 18 18 18 17 17 17 17 17 17 17 17 17 17 17 17 16 16 17 17 17 15 15 14 14 14 14 14 14 14 14 14 14 14 14 14 14 13 13 13 13
18 18 18 18 18 17 17 17 17 17 17 17 17 17 16 16 16 16 16 16 16 16 17 16 15 15 14 14 14 14 13 14 14 14 14 14 14 14 13 13 13 13 13
18 18 18 18 18 17 17 17 17 17 17 16 16 16 16 16 16 16 16 16 16 16 16 16 15 14 14 14 14 13 13 13 13 14 14 14 13 13 13 13 13 13 13
18 18 18 18 17 17 17 17 17 17 16 16 16 16 16 16 16 16 16 16 15 15 15 15 15 14 14 14 14 14 13 13 13 13 14 14 13 13 13 13 13 13 13
18 18 18 18 18 17 17 17 17 17 16 16 16 16 16 16 16 16 15 15 15 15 15 15 15 14 14 14 14 14 13 13 13 13 13 13 13 13 13 13 13 13 13
18 18 18 18 18 17 17 17 17 17 17 16 16 16 16 16 16 15 15 15 15 15 15 15 15 15 14 14 14 14 13 13 13 13 13 13 13 13 13 13 12 12 12
18 18 18 18 18 18 17 17 17 17 17 17 16 16 16 16 16 16 15 15 15 15 15 15 15 15 14 14 14 14 14 13 13 13 13 13 13 13 13 13 12 12 12
18 18 18 18 18 18 18 18 17 17 17 17 17 16 16 16 16 16 16 15 15 15 15 15 15 15 14 14 14 14 14 13 13 13 12 12 12 12 12 12 12 12 12
18 18 18 18 18 18 18 18 17 17 17 17 17 17 16 16 16 16 15 15 15 15 15 14 14 14 14 14 13 13 13 13 13 13 13 13 12 12 12 12 12 12 12
19 19 18 18 18 18 18 18 17 17 17 17 17 17 17 16 16 16 15 15 15 15 15 14 14 14 14 13 13 13 13 13 13 13 12 12 12 12 12 12 12 12 12
19 18 18 18 18 18 18 18 17 17 16 16 16 16 16 16 16 16 15 15 15 14 15 14 14 14 14 14 13 13 13 13 13 13 12 12 12 12 12 12 12 12 12
18 18 18 18 18 18 18 18 17 17 16 16 16 16 16 16 16 16 15 15 14 14 14 14 14 14 14 14 13 13 13 13 13 13 13 12 12 12 12 12 12 12 12
Wind_Speed
3 3 2 1 1 2 3 2 2 2 1 1 1 1 2 1 2 1 5 8 6 5 5 5 6 6 6 6 7 9 10 11 11 11 11 11 11 12 12 11 12 11 11
2 2 2 1 1 1 1 1 2 2 1 1 1 2 1 2 3 2 2 6 7 5 4 4 4 5 6 7 7 8 9 10 11 11 11 12 12 11 11 11 12 12 12
2 1 1 1 1 2 2 2 2 1 1 1 1 2 2 2 2 2 2 1 4 6 5 3 3 4 5 6 6 6 6 7 9 10 10 11 11 11 11 11 11 11 11
2 1 1 1 1 2 2 2 1 1 1 1 1 1 2 2 2 2 2 1 1 2 5 4 2 2 4 6 6 6 7 7 8 9 10 10 10 10 11 11 11 12 12
1 1 1 2 1 1 1 1 3 1 1 1 2 2 2 2 2 2 2 2 2 2 2 5 3 1 1 3 4 5 6 6 7 8 9 10 10 10 10 10 10 11 12
1 0 2 1 1 1 1 2 2 1 1 1 2 3 3 2 2 2 2 2 3 3 3 3 2 4 4 3 1 0 2 4 5 6 7 9 10 10 11 11 10 11 11
2 1 1 2 0 1 1 1 1 2 2 2 1 2 2 2 2 2 2 2 3 3 4 4 4 4 3 6 6 4 3 2 1 3 4 6 8 9 9 10 10 10 10
1 1 1 1 1 1 1 1 1 0 1 1 1 1 1 3 2 2 2 2 2 3 3 4 5 4 4 4 7 6 4 3 2 1 3 3 5 7 7 7 9 9 10
1 2 1 1 1 1 2 1 1 0 0 1 0 2 1 1 2 3 3 2 2 2 2 3 4 4 4 4 4 6 5 4 3 2 2 3 4 5 5 6 7 8 9
1 1 1 1 1 1 1 1 2 0 1 0 1 1 2 2 1 1 2 3 2 1 2 2 3 4 4 4 6 7 6 5 4 3 3 4 4 4 4 4 5 6 7
2 1 1 1 1 1 1 2 1 1 1 1 0 0 0 0 1 1 0 1 2 2 1 1 1 2 3 4 4 7 7 7 6 6 5 5 4 4 4 4 3 4 5
2 2 1 1 0 1 1 1 0 1 1 1 2 1 1 1 1 1 1 1 1 1 1 1 0 1 2 2 5 7 6 5 5 5 5 5 4 4 4 4 4 4 4
1 1 1 1 0 1 1 1 1 0 0 1 1 1 1 1 2 1 1 1 1 1 2 2 1 1 2 2 4 4 5 4 4 3 3 3 4 4 3 3 3 3 4
1 2 1 1 1 0 1 1 0 1 0 1 1 2 2 1 1 1 1 1 2 2 2 1 2 2 1 2 4 3 4 4 3 3 2 2 3 3 3 3 3 3 3
1 2 1 1 1 1 0 1 0 0 0 1 1 1 2 1 2 2 2 2 3 2 1 2 2 2 2 2 3 2 2 5 3 3 3 3 3 3 3 3 3 3 3
2 2 2 2 1 1 1 2 2 1 1 1 1 1 2 2 1 2 2 3 3 3 2 0 1 2 2 2 4 2 2 6 5 4 3 3 3 3 3 3 4 4 4
3 3 3 2 2 2 2 2 2 1 2 1 2 2 2 2 2 2 2 3 3 3 3 1 1 2 2 3 3 3 3 4 4 7 5 4 4 4 4 3 3 4 5
4 4 4 3 3 3 3 3 3 2 3 2 2 2 3 2 2 3 3 3 2 3 3 3 2 2 3 4 3 4 3 4 3 8 8 7 6 6 5 5 5 5 5
5 5 4 4 4 4 4 4 4 3 3 3 3 3 3 2 3 2 3 3 3 3 3 4 3 2 3 3 3 4 4 3 4 7 10 10 9 8 7 7 7 7 7
6 5 5 5 5 4 4 4 4 4 4 4 4 3 3 3 3 3 3 3 3 3 4 4 3 3 3 3 4 4 4 4 4 4 5 7 9 11 11 10 10 9 9
6 6 6 6 6 5 5 5 5 5 5 4 4 4 4 3 2 3 4 3 4 4 4 5 4 4 3 3 4 4 4 4 4 4 4 5 6 7 9 11 12 11 11
7 6 7 7 6 5 3 3 5 5 5 5 5 4 4 4 5 6 5 5 5 5 5 5 5 5 4 4 4 5 5 5 4 4 5 5 5 6 6 7 10 12 13
7 7 7 7 7 5 5 5 6 6 5 5 5 5 5 4 5 6 7 9 8 7 7 8 7 6 6 5 5 7 6 6 6 4 5 6 5 6 6 6 11 14 14
7 7 7 7 7 6 7 7 7 7 6 6 6 6 6 5 5 5 6 6 7 7 8 8 8 8 7 5 6 7 7 7 6 5 5 6 6 6 6 6 11 15 16
7 7 7 7 7 6 6 7 7 7 6 7 6 6 6 6 4 5 7 7 7 6 7 8 7 7 6 5 6 6 6 6 6 5 5 6 6 6 6 6 8 14 16
7 7 6 7 7 7 7 8 8 7 6 6 6 6 5 6 5 6 7 7 8 7 7 7 8 8 9 8 9 8 7 7 6 5 4 5 6 5 5 5 5 7 11
Wind_Direction
105 103 90 95 121 127 151 154 126 115 101 93 58 64 41 47 47 67 118 133 150 166 186 194 201 211 212 218 226 226 225 221 217 215 213 215 213 215 216 211 210 208 208
96 97 120 109 110 132 122 136 118 125 136 96 66 66 50 55 77 48 80 135 149 162 183 202 204 207 214 218 225 233 232 228 221 219 218 217 218 221 220 217 214 213 211
111 116 105 130 104 116 122 121 113 139 155 128 100 81 84 64 69 66 60 89 135 147 155 173 208 223 226 224 225 234 229 227 220 221 222 218 220 222 224 222 221 217 211
131 146 121 95 104 129 131 136 149 131 96 92 89 64 84 94 82 70 64 75 55 106 141 144 191 240 238 234 233 232 229 224 217 219 221 219 221 222 221 222 221 214 211
129 135 79 68 146 117 106 102 96 64 96 87 99 89 77 81 86 78 65 60 69 65 79 124 140 88 281 249 242 234 234 225 220 221 221 218 220 220 215 214 216 215 214
101 90 119 87 98 104 100 85 94 90 92 108 85 80 75 80 75 74 67 78 72 65 59 47 96 96 78 50 5 252 240 224 216 217 217 216 218 219 215 215 216 218 217
86 79 77 109 84 90 65 102 115 132 121 121 129 112 112 100 77 73 60 57 75 67 57 45 42 36 83 90 66 60 58 76 132 196 208 214 215 214 215 222 220 219 214
91 121 76 105 80 97 104 100 124 79 125 160 271 226 169 146 118 81 79 80 64 70 68 62 58 46 29 51 77 70 60 55 69 147 181 183 188 197 205 219 213 210 212
96 57 68 47 60 63 93 123 150 159 176 161 326 321 327 49 99 107 85 78 71 65 70 75 72 58 48 49 64 70 52 41 44 78 151 168 167 173 184 196 202 205 206
79 79 71 68 44 59 87 156 108 219 265 207 150 333 346 12 318 113 124 112 105 87 52 36 66 70 55 57 62 59 57 51 51 60 99 127 138 148 155 180 195 200 203
90 71 77 74 78 75 64 36 77 326 279 311 328 120 114 218 274 285 123 129 114 96 87 63 55 62 62 58 63 67 64 57 55 60 77 95 104 115 120 127 142 163 179
124 98 99 86 89 74 90 74 98 134 2 351 323 326 310 302 310 308 293 200 131 111 107 86 112 102 95 84 75 75 69 63 57 60 69 79 92 105 112 116 121 128 143
139 114 83 114 90 103 105 85 145 34 41 349 301 301 306 311 306 299 268 254 218 179 163 191 178 152 138 117 102 108 102 81 67 68 79 87 96 103 107 120 128 134 141
130 106 132 149 127 127 120 121 173 158 190 271 296 310 292 300 292 267 262 260 246 209 185 187 171 175 157 148 115 183 122 109 91 87 90 101 111 114 121 129 138 142 147
173 149 162 160 155 146 151 196 141 280 248 262 263 235 269 286 271 268 247 258 272 278 244 165 196 173 187 158 143 177 145 124 134 130 118 111 115 125 128 131 142 150 154
194 188 185 184 187 193 200 221 213 184 243 259 287 319 294 287 279 265 268 265 271 279 286 249 203 173 177 184 163 190 175 152 164 160 153 143 138 138 139 136 138 137 138
198 206 205 204 207 211 205 205 234 214 232 244 249 239 258 291 284 268 249 246 255 262 259 264 209 149 190 235 180 207 210 209 175 167 172 174 172 171 171 168 162 157 153
207 205 208 209 213 214 212 215 228 224 228 232 243 247 254 247 254 268 261 258 254 250 253 255 233 194 203 220 218 229 222 217 209 164 178 190 194 191 190 192 191 184 179
208 208 205 211 219 220 220 222 225 231 236 237 239 244 253 257 255 255 254 256 250 237 238 243 234 214 221 213 220 229 234 236 236 184 186 197 201 200 200 201 202 201 199
208 210 211 215 218 220 221 221 220 226 234 239 242 244 248 248 251 255 245 244 251 253 241 246 240 223 219 212 231 235 226 217 236 223 202 201 196 200 206 207 209 209 206
212 210 212 215 216 215 217 216 219 222 227 232 232 234 236 240 270 266 269 251 243 250 247 242 241 237 232 222 238 243 248 238 227 237 229 216 204 208 205 208 212 211 209
214 213 215 219 220 220 168 197 231 228 230 229 232 237 232 223 226 222 246 261 266 253 259 259 253 254 251 246 250 255 255 252 251 222 236 240 228 228 216 211 194 199 208
210 213 218 222 225 217 181 198 222 228 231 232 232 240 251 236 226 238 221 220 233 242 256 263 269 269 263 255 254 250 250 256 263 249 239 251 241 242 235 215 188 196 205
209 212 217 221 225 218 189 198 213 222 233 231 232 233 240 246 241 251 248 241 238 231 232 243 259 265 267 264 251 253 258 250 253 249 237 255 251 248 245 223 194 199 206
211 213 213 216 220 220 192 198 216 223 229 232 233 235 241 241 222 245 249 252 251 245 223 228 247 256 264 250 252 257 251 250 255 247 223 244 256 257 249 239 208 198 207
212 215 213 216 220 225 194 196 216 230 232 234 227 227 225 242 219 227 242 250 254 256 256 239 231 237 241 231 222 241 252 253 259 256 228 235 252 254 253 243 229 210 213
Height
1546 1547 1547 1547 1548 1548 1548 1548 1548 1548 1548 1548 1549 1549 1549 1549 1550 1550 1550 1549 1549 1549 1550 1550 1550 1550 1551 1551 1551 1552 1553 1553 1554 1555 1556 1557 1558 1560 1561 1562 1563 1564 1565
1547 1547 1548 1548 1548 1548 1549 1549 1549 1548 1549 1549 1549 1549 1549 1549 1549 1549 1550 1549 1549 1549 1549 1549 1549 1549 1549 1549 1549 1549 1550 1551 1552 1553 1554 1555 1556 1557 1558 1560 1561 1562 1563
1547 1548 1549 1548 1548 1548 1548 1548 1549 1549 1549 1549 1549 1549 1549 1549 1549 1549 1549 1549 1549 1548 1548 1548 1548 1548 1548 1547 1547 1547 1547 1548 1549 1550 1551 1552 1553 1555 1556 1557 1558 1560 1561
1548 1548 1549 1549 1548 1549 1549 1549 1549 1549 1550 1550 1549 1549 1549 1548 1548 1548 1549 1548 1549 1549 1548 1547 1547 1546 1546 1545 1545 1545 1545 1545 1546 1547 1548 1549 1550 1552 1553 1554 1555 1557 1558
1548 1549 1549 1549 1549 1549 1549 1549 1549 1549 1549 1549 1549 1548 1548 1548 1548 1548 1548 1548 1548 1548 1547 1546 1546 1545 1544 1543 1543 1543 1543 1544 1544 1545 1545 1546 1547 1548 1550 1551 1552 1553 1555
1549 1549 1549 1549 1549 1549 1549 1549 1548 1548 1548 1548 1549 1549 1548 1548 1548 1548 1548 1548 1547 1547 1547 1546 1546 1544 1543 1542 1542 1542 1542 1542 1542 1543 1543 1544 1544 1545 1546 1548 1549 1550 1551
1549 1549 1550 1549 1549 1549 1549 1549 1549 1549 1549 1548 1549 1548 1548 1548 1548 1548 1548 1548 1548 1547 1547 1546 1546 1545 1544 1542 1541 1541 1541 1541 1541 1541 1541 1541 1542 1542 1543 1545 1546 1547 1548
1549 1550 1549 1550 1549 1548 1548 1548 1548 1549 1549 1548 1549 1549 1549 1549 1548 1548 1548 1547 1547 1547 1547 1546 1545 1544 1544 1543 1541 1541 1540 1540 1540 1539 1539 1539 1540 1540 1540 1541 1541 1543 1545
1549 1549 1549 1549 1549 1549 1549 1548 1548 1548 1549 1548 1548 1549 1548 1548 1548 1548 1547 1547 1547 1547 1547 1546 1545 1544 1543 1543 1542 1540 1539 1539 1538 1538 1537 1537 1538 1538 1538 1539 1539 1540 1541
1549 1549 1549 1549 1549 1549 1548 1549 1548 1548 1548 1548 1548 1547 1548 1548 1548 1548 1548 1547 1547 1546 1546 1546 1546 1544 1543 1542 1541 1540 1539 1538 1537 1536 1536 1536 1536 1536 1537 1537 1537 1538 1538
1549 1549 1549 1549 1548 1549 1548 1548 1547 1547 1548 1548 1548 1548 1547 1547 1547 1548 1548 1548 1547 1547 1546 1545 1545 1544 1543 1542 1541 1539 1538 1537 1536 1535 1535 1535 1535 1535 1535 1535 1536 1536 1536
1549 1549 1549 1548 1548 1548 1548 1547 1547 1547 1547 1546 1547 1547 1547 1547 1547 1547 1547 1547 1547 1546 1545 1545 1544 1543 1542 1541 1540 1538 1537 1537 1536 1535 1535 1534 1534 1534 1534 1534 1535 1535 1535
1549 1548 1549 1548 1548 1548 1548 1547 1547 1547 1547 1546 1546 1546 1546 1546 1546 1546 1546 1546 1546 1546 1545 1544 1544 1543 1542 1541 1539 1538 1537 1536 1535 1535 1534 1534 1534 1534 1533 1533 1533 1534 1534
1548 1548 1547 1547 1547 1548 1548 1547 1547 1547 1546 1546 1546 1545 1545 1545 1545 1545 1545 1545 1545 1545 1544 1544 1543 1542 1541 1540 1538 1537 1536 1535 1535 1534 1533 1533 1532 1532 1532 1532 1532 1532 1533
1547 1547 1547 1547 1547 1547 1547 1546 1547 1546 1546 1546 1546 1545 1545 1545 1544 1544 1544 1544 1544 1543 1543 1542 1542 1541 1540 1538 1537 1536 1535 1534 1533 1533 1532 1532 1531 1531 1531 1530 1530 1530 1531
1546 1546 1546 1546 1546 1546 1546 1545 1546 1545 1545 1545 1544 1544 1544 1544 1544 1543 1543 1542 1542 1542 1541 1541 1541 1540 1538 1538 1536 1535 1534 1533 1532 1532 1531 1530 1530 1530 1529 1529 1529 1529 1529
1544 1544 1545 1545 1545 1545 1545 1544 1545 1544 1544 1544 1544 1543 1543 1542 1542 1542 1542 1541 1540 1541 1540 1540 1539 1538 1536 1536 1535 1534 1534 1532 1531 1530 1530 1529 1529 1528 1527 1527 1527 1527 1527
1542 1542 1543 1543 1543 1544 1543 1543 1543 1543 1543 1543 1543 1542 1541 1541 1540 1540 1540 1540 1539 1538 1538 1538 1537 1536 1534 1534 1533 1532 1532 1532 1530 1529 1528 1527 1527 1526 1525 1525 1525 1525 1525
1540 1540 1541 1541 1541 1542 1542 1542 1542 1542 1542 1542 1541 1540 1540 1539 1539 1538 1537 1538 1538 1537 1536 1536 1535 1534 1533 1532 1531 1530 1530 1529 1529 1527 1526 1525 1524 1524 1523 1523 1523 1523 1523
1537 1538 1538 1539 1539 1539 1540 1540 1540 1540 1540 1540 1539 1539 1538 1537 1537 1536 1536 1535 1535 1535 1534 1534 1533 1532 1531 1530 1529 1529 1528 1527 1526 1526 1524 1523 1522 1521 1521 1520 1520 1520 1520
1535 1535 1536 1536 1537 1537 1537 1537 1538 1538 1537 1537 1537 1536 1536 1535 1534 1534 1534 1534 1533 1532 1532 1531 1531 1530 1529 1528 1527 1527 1526 1525 1523 1523 1522 1521 1520 1519 1518 1517 1517 1517 1517
1532 1533 1533 1534 1534 1535 1534 1534 1534 1535 1535 1534 1534 1534 1533 1532 1531 1531 1531 1531 1530 1530 1530 1529 1528 1527 1526 1525 1525 1524 1523 1522 1521 1520 1519 1519 1518 1516 1516 1515 1514 1514 1514
1528 1529 1530 1531 1531 1531 1531 1531 1531 1531 1532 1531 1531 1531 1531 1530 1529 1528 1527 1527 1527 1526 1526 1526 1525 1524 1523 1522 1521 1520 1519 1518 1518 1517 1515 1515 1514 1513 1512 1511 1510 1509 1509
1525 1525 1526 1527 1527 1527 1527 1528 1527 1528 1528 1528 1527 1526 1526 1526 1526 1525 1525 1524 1523 1522 1522 1521 1520 1520 1520 1518 1517 1516 1515 1514 1513 1513 1512 1511 1510 1509 1508 1507 1506 1505 1505
1521 1521 1522 1523 1523 1523 1523 1524 1524 1524 1524 1523 1523 1523 1522 1522 1521 1521 1521 1520 1519 1519 1518 1517 1516 1515 1514 1513 1513 1513 1512 1511 1510 1509 1508 1507 1506 1505 1504 1503 1502 1501 1500
1516 1517 1518 1518 1518 1519 1519 1519 1520 1520 1520 1519 1519 1518 1518 1518 1518 1517 1516 1515 1515 1514 1514 1513 1512 1511 1510 1509 1508 1508 1507 1507 1506 1505 1504 1503 1502 1502 1500 1499 1498 1497 1496